TimeEDT,TemperatureF,Dew PointF,Humidity,Sea Level PressureIn,VisibilityMPH,Wind Direction,Wind SpeedMPH,Gust SpeedMPH,PrecipitationIn,Events,Conditions,WindDirDegrees,DateUTC
12:16 AM,73.4,71.6,94,29.80,10.0,ESE,5.8,-,0.01,,Overcast,110,2013-07-23 04:16:00
12:56 AM,75.0,73.0,94,29.78,10.0,ESE,6.9,-,0.01,,Overcast,110,2013-07-23 04:56:00
1:30 AM,75.2,73.4,94,29.77,10.0,ESE,5.8,-,N/A,,Mostly Cloudy,110,2013-07-23 05:30:00
1:56 AM,75.9,73.9,94,29.75,10.0,SE,8.1,-,N/A,,Overcast,140,2013-07-23 05:56:00
2:46 AM,75.2,73.4,94,29.73,10.0,South,5.8,-,0.04,,Overcast,170,2013-07-23 06:46:00
2:56 AM,75.9,75.0,97,29.72,9.0,South,6.9,-,0.04,,Overcast,170,2013-07-23 06:56:00
3:09 AM,77.0,75.2,94,29.73,9.0,South,8.1,-,N/A,,Overcast,170,2013-07-23 07:09:00
3:34 AM,77.0,75.2,94,29.72,7.0,South,8.1,-,0.00,Rain,Light Rain,170,2013-07-23 07:34:00
3:41 AM,77.0,75.2,94,29.71,8.0,South,6.9,-,0.00,Rain,Light Rain,180,2013-07-23 07:41:00
3:56 AM,77.0,75.0,94,29.70,8.0,South,6.9,-,0.01,Rain,Light Rain,190,2013-07-23 07:56:00
4:56 AM,77.0,73.9,90,29.69,8.0,SSW,8.1,-,0.02,Rain,Light Rain,210,2013-07-23 08:56:00
5:56 AM,77.0,73.9,90,29.68,1.5,South,9.2,-,0.17,Rain,Light Rain,190,2013-07-23 09:56:00
6:24 AM,77.0,73.4,89,29.68,2.0,SSW,10.4,-,0.04,Rain,Light Rain,200,2013-07-23 10:24:00
6:56 AM,75.9,73.9,94,29.67,4.0,South,11.5,-,0.06,,Overcast,180,2013-07-23 10:56:00
7:20 AM,75.2,73.4,94,29.66,4.0,South,9.2,-,N/A,,Overcast,180,2013-07-23 11:20:00
7:43 AM,77.0,73.4,89,29.67,4.0,South,8.1,-,N/A,,Overcast,190,2013-07-23 11:43:00
7:56 AM,77.0,75.0,94,29.66,5.0,South,9.2,-,N/A,,Overcast,180,2013-07-23 11:56:00
8:56 AM,77.0,75.0,94,29.64,7.0,South,8.1,-,N/A,,Overcast,180,2013-07-23 12:56:00
9:56 AM,80.1,71.1,74,29.62,10.0,SW,12.7,-,N/A,,Mostly Cloudy,230,2013-07-23 13:56:00
10:20 AM,80.6,71.6,74,29.63,10.0,WSW,13.8,19.6,N/A,,Mostly Cloudy,240,2013-07-23 14:20:00
10:56 AM,80.1,71.1,74,29.64,10.0,SSW,12.7,-,N/A,,Mostly Cloudy,210,2013-07-23 14:56:00
11:56 AM,82.0,72.0,71,29.62,10.0,SSW,10.4,-,N/A,,Mostly Cloudy,210,2013-07-23 15:56:00
12:56 PM,82.9,72.0,69,29.61,10.0,SSW,10.4,-,N/A,,Mostly Cloudy,210,2013-07-23 16:56:00
1:56 PM,82.0,72.0,71,29.60,10.0,SW,12.7,-,N/A,,Mostly Cloudy,230,2013-07-23 17:56:00
2:56 PM,82.0,71.1,69,29.59,10.0,SSW,16.1,21.9,N/A,,Mostly Cloudy,210,2013-07-23 18:56:00
3:56 PM,82.9,73.0,72,29.58,10.0,SSW,16.1,20.7,N/A,,Mostly Cloudy,200,2013-07-23 19:56:00
4:56 PM,84.0,73.0,69,29.56,10.0,South,11.5,-,N/A,,Scattered Clouds,180,2013-07-23 20:56:00
5:56 PM,82.0,73.0,74,29.55,10.0,SSW,15.0,-,N/A,Thunderstorm,Thunderstorm,210,2013-07-23 21:56:00
6:46 PM,78.8,71.6,78,29.57,10.0,SW,11.5,-,N/A,Thunderstorm,Thunderstorm,220,2013-07-23 22:46:00
6:56 PM,79.0,72.0,79,29.58,10.0,West,9.2,-,N/A,Thunderstorm,Thunderstorm,280,2013-07-23 22:56:00
7:12 PM,78.8,71.6,78,29.58,4.0,NW,5.8,-,0.00,Rain-Thunderstorm,Light Thunderstorms and Rain,310,2013-07-23 23:12:00
7:34 PM,75.2,71.6,89,29.58,10.0,East,4.6,-,0.10,,Mostly Cloudy,90,2013-07-23 23:34:00
7:56 PM,78.1,73.0,84,29.58,10.0,SSW,6.9,-,0.10,,Mostly Cloudy,200,2013-07-23 23:56:00
8:41 PM,77.0,73.4,89,29.59,10.0,South,6.9,-,N/A,Thunderstorm,Thunderstorm,170,2013-07-24 00:41:00
8:56 PM,77.0,73.0,88,29.59,10.0,SSE,6.9,-,N/A,Thunderstorm,Thunderstorm,160,2013-07-24 00:56:00
9:37 PM,73.4,71.6,94,29.61,4.0,NNW,9.2,24.2,0.01,Rain-Thunderstorm,Light Thunderstorms and Rain,340,2013-07-24 01:37:00
9:56 PM,73.0,69.1,87,29.61,8.0,NNE,8.1,-,0.09,Rain-Thunderstorm,Light Thunderstorms and Rain,30,2013-07-24 01:56:00
10:16 PM,71.6,69.8,94,29.61,10.0,ENE,6.9,-,0.00,,Overcast,70,2013-07-24 02:16:00
10:56 PM,72.0,69.1,91,29.60,10.0,ESE,4.6,-,0.00,,Mostly Cloudy,120,2013-07-24 02:56:00
11:56 PM,72.0,69.1,91,29.59,10.0,East,3.5,-,N/A,,Scattered Clouds,100,2013-07-24 03:56:00